TimeCET,TemperatureF,Dew PointF,Humidity,Sea Level PressureIn,VisibilityMPH,Wind Direction,Wind SpeedMPH,Gust SpeedMPH,PrecipitationIn,Events,Conditions,WindDirDegrees,DateUTC
12:00 AM,30.2,28.4,93,29.68,3.7,North,2.3,-,N/A,,Unknown,350,2012-10-30 23:00:00
12:30 AM,30.2,28.4,93,29.68,5.6,North,3.5,-,N/A,,Unknown,360,2012-10-30 23:30:00
1:00 AM,30,28,90,29.73,5,North,2.3,,,,Clear,10,2012-10-31 00:00:00
1:00 AM,30.2,28.4,93,29.68,5.0,North,2.3,-,N/A,,Unknown,10,2012-10-31 00:00:00
1:30 AM,28.4,26.6,93,29.68,4.3,North,2.3,-,N/A,,Unknown,10,2012-10-31 00:30:00
2:00 AM,28.4,26.6,93,29.65,5.0,Calm,Calm,-,N/A,,Unknown,0,2012-10-31 01:00:00
2:30 AM,28.4,26.6,93,29.65,4.3,North,2.3,-,N/A,,Unknown,350,2012-10-31 01:30:00
3:00 AM,28.4,26.6,93,29.65,6.2,NNW,3.5,-,N/A,,Unknown,340,2012-10-31 02:00:00
3:30 AM,28.4,28.4,100,29.62,5.6,North,2.3,-,N/A,,Unknown,350,2012-10-31 02:30:00
4:00 AM,28.4,26.6,93,29.62,3.7,NNE,1.2,-,N/A,,Unknown,30,2012-10-31 03:00:00
4:30 AM,26.6,26.6,100,29.62,3.7,NW,1.2,-,N/A,,Unknown,320,2012-10-31 03:30:00
5:00 AM,26.6,26.6,100,29.62,6.2,NW,1.2,-,N/A,,Unknown,320,2012-10-31 04:00:00
5:30 AM,28.4,26.6,93,29.62,3.1,NW,2.3,-,N/A,,Mist,310,2012-10-31 04:30:00
6:00 AM,26.6,24.8,93,29.62,5.0,Calm,Calm,-,N/A,,Unknown,0,2012-10-31 05:00:00
6:30 AM,26.6,24.8,93,29.59,4.3,Calm,Calm,-,N/A,,Unknown,0,2012-10-31 05:30:00
7:00 AM,26,25,94,29.65,3,NNW,2.3,,,,Clear,340,2012-10-31 06:00:00
7:00 AM,26.6,24.8,93,29.59,-9999.0,NNW,2.3,-,N/A,,Mist,340,2012-10-31 06:00:00
7:30 AM,26.6,24.8,93,29.59,6.2,North,2.3,-,N/A,,Unknown,350,2012-10-31 06:30:00
8:00 AM,26.6,26.6,100,29.59,6.2,NNW,1.2,-,N/A,,Unknown,340,2012-10-31 07:00:00
8:30 AM,28.4,28.4,100,29.59,6.2,Calm,Calm,-,N/A,,Unknown,0,2012-10-31 07:30:00
9:00 AM,32.0,30.2,93,29.59,6.2,North,4.6,-,N/A,,Unknown,10,2012-10-31 08:00:00
9:30 AM,33.8,32.0,93,29.59,6.2,North,5.8,-,N/A,,Unknown,10,2012-10-31 08:30:00
10:00 AM,35.6,33.8,93,29.59,6.2,Variable,3.5,-,N/A,,Unknown,0,2012-10-31 09:00:00
10:30 AM,37.4,33.8,87,29.59,6.2,Variable,2.3,-,N/A,,Unknown,0,2012-10-31 09:30:00
11:00 AM,41.0,35.6,81,29.59,6.2,Calm,Calm,-,N/A,,Unknown,0,2012-10-31 10:00:00
11:30 AM,42.8,35.6,76,29.59,6.2,Calm,Calm,-,N/A,,Unknown,0,2012-10-31 10:30:00
12:00 PM,44.6,35.6,71,29.56,6.2,Variable,2.3,-,N/A,,Unknown,0,2012-10-31 11:00:00
12:30 PM,46.4,35.6,66,29.53,6.2,Variable,1.2,-,N/A,,Unknown,0,2012-10-31 11:30:00
1:00 PM,46,36,60,29.56,11,Calm,Calm,,,,Clear,,2012-10-31 12:00:00
1:00 PM,46.4,37.4,71,29.53,6.2,Calm,Calm,-,N/A,,Unknown,0,2012-10-31 12:00:00
1:30 PM,46.4,37.4,71,29.50,-9999.0,Variable,2.3,-,N/A,,Mist,0,2012-10-31 12:30:00
2:00 PM,46.4,37.4,71,29.50,6.2,Variable,2.3,-,N/A,,Unknown,0,2012-10-31 13:00:00
2:30 PM,48.2,37.4,66,29.50,6.2,Variable,3.5,-,N/A,,Unknown,0,2012-10-31 13:30:00
3:00 PM,48.2,37.4,66,29.47,6.2,Variable,2.3,-,N/A,,Unknown,0,2012-10-31 14:00:00
3:30 PM,48.2,37.4,66,29.47,6.2,Variable,1.2,-,N/A,,Unknown,0,2012-10-31 14:30:00
4:00 PM,48.2,37.4,66,29.47,6.2,Calm,Calm,-,N/A,,Unknown,0,2012-10-31 15:00:00
4:30 PM,46.4,37.4,71,29.44,6.2,East,2.3,-,N/A,,Unknown,90,2012-10-31 15:30:00
5:00 PM,46.4,37.4,71,29.44,6.2,ESE,2.3,-,N/A,,Unknown,120,2012-10-31 16:00:00
5:30 PM,44.6,37.4,76,29.44,6.2,Calm,Calm,-,N/A,,Unknown,0,2012-10-31 16:30:00
6:00 PM,42.8,37.4,81,29.44,6.2,West,1.2,-,N/A,,Unknown,260,2012-10-31 17:00:00
6:30 PM,42.8,37.4,81,29.44,6.2,Calm,Calm,-,N/A,,Unknown,0,2012-10-31 17:30:00
7:00 PM,42,37,75,29.46,9,WNW,2.3,,,,Clear,290,2012-10-31 18:00:00
7:00 PM,42.8,37.4,81,29.42,6.2,WNW,2.3,-,N/A,,Unknown,290,2012-10-31 18:00:00
7:30 PM,41.0,35.6,81,29.42,6.2,Calm,Calm,-,N/A,,Unknown,0,2012-10-31 18:30:00
8:00 PM,41.0,37.4,87,29.42,6.2,SSW,4.6,-,N/A,,Unknown,200,2012-10-31 19:00:00
8:30 PM,41.0,37.4,87,29.42,6.2,WSW,3.5,-,N/A,,Unknown,250,2012-10-31 19:30:00
9:00 PM,41.0,37.4,87,29.42,6.2,Calm,Calm,-,N/A,,Unknown,0,2012-10-31 20:00:00
9:30 PM,39.2,37.4,93,29.42,6.2,Calm,Calm,-,N/A,,Unknown,0,2012-10-31 20:30:00
10:00 PM,39.2,35.6,87,29.39,5.6,Calm,Calm,-,N/A,,Unknown,0,2012-10-31 21:00:00
10:30 PM,39.2,35.6,87,29.39,5.6,Calm,Calm,-,N/A,,Unknown,0,2012-10-31 21:30:00
11:00 PM,39.2,37.4,93,29.36,5.0,SE,2.3,-,N/A,,Unknown,140,2012-10-31 22:00:00
11:30 PM,39.2,35.6,87,29.36,3.7,Variable,2.3,-,N/A,,Unknown,0,2012-10-31 22:30:00